Weather Service Report


391 
ASUS44 KOUN 250010
RWROK 

WEATHER ROUNDUP FOR OKLAHOMA
NATIONAL WEATHER SERVICE NORMAN OK
700 PM CDT SAT SEP 24 2016

NOTE: "FAIR" INDICATES FEW OR NO CLOUDS BELOW 12,000 FEET WITH NO
      SIGNIFICANT WEATHER AND/OR OBSTRUCTIONS TO VISIBILITY.

OKZ001>007-009>012-014-015-017-250100-
NORTHWEST OKLAHOMA AND THE PANHANDLE
  
CITY           SKY/WX    TMP DP  RH WIND       PRES   REMARKS
GAGE           CLOUDY    72  67  84 SE15      29.93R                  
6HR MIN TEMP:  68; 6HR MAX TEMP:  76; 6HR PCP:  0.13;                

GUYMON         CLEAR     82  32  16 NW3       29.90R                  
ENID/WOODRING  LGT RAIN  70  66  88 W16G23    29.94R                  
$$

OKZ016-021>023-033>039-044-045-250100-
SOUTHWEST OKLAHOMA
  
CITY           SKY/WX    TMP DP  RH WIND       PRES   REMARKS
LAWTON/REGL    CLOUDY    84  68  58 SE9       29.89R                  
6HR MIN TEMP:  83; 6HR MAX TEMP:  89;                                

LAWTON/FT SILL CLOUDY    83  71  66 E3        29.89R                  
FREDERICK      MOCLDY    74  71  91 MISG      29.87S THUNDER          
CLINTON        CLOUDY    68  64  87 E6        29.96F                  
HOBART           N/A     68  66  93 E8        29.93F                  
ALTUS AFB      CLOUDY   N/A N/A N/A NE6         N/A                   
$$

OKZ018>020-024>031-250100-
CENTRAL OKLAHOMA
  
CITY           SKY/WX    TMP DP  RH WIND       PRES   REMARKS
OKLAHOMA CITY  CLOUDY    81  69  67 S7        29.93R                  
6HR MIN TEMP:  81; 6HR MAX TEMP:  88;                                

OKC/WILEY POST CLOUDY    83  69  62 S10       29.93R                  
OKC/TINKER AFB PTCLDY    82  69  65 S5        29.93R                  
STILLWATER     CLOUDY    84  69  60 S10       29.92R                  
GUTHRIE        CLOUDY    84  69  60 S9        29.91R                  
$$

OKZ008-013-054>072-250100-
NORTHEAST OKLAHOMA
  
CITY           SKY/WX    TMP DP  RH WIND       PRES   REMARKS
TULSA          PTCLDY    88  67  49 S15       29.90R HX  91           
6HR MIN TEMP:  88; 6HR MAX TEMP:  93;                                

TULSA/JONES    CLEAR     89  65  44 S9G18     29.91R HX  91           
PONCA CITY     CLOUDY    86  67  52 VRB7G17   29.92R                  
BARTLESVILLE   CLEAR     85  67  54 S6        29.92R                  
MUSKOGEE       CLEAR     85  66  53 S7        29.94R                  
$$

OKZ032-040>043-046>053-073>077-250100-
SOUTH CENTRAL/SOUTHEAST OKLAHOMA
  
CITY           SKY/WX    TMP DP  RH WIND       PRES   REMARKS
ARDMORE/DWNTWN   N/A     84  64  51 S3        29.90R                  
MCALESTER      CLEAR     86  66  51 SE6       29.93R                  
$$

  

Return to Home page


Western Regional Climate Center, wrcc@dri.edu